NI2O Weather Reports


Display with metric or nautical units.
time (UTC)temp
F
wind
direction
speed
MPH
gust
MPH
rain 1hr
in
rain 24hr
in
rain mn
in
humidity
%
barometer
mb
20260504140907 61 185 2.0 3.0 0.00 0.00 0.00 52 1013.2
20260504130743 57 165 4.0 11.0 0.00 0.00 0.00 62 1013.8
20260504120135 51 207 4.0 6.0 0.00 0.00 0.00 74 1013.9
20260504081633 47 203 1.0 2.0 0.00 0.00 0.00 62 1014.0
20260504080558 47 200 0.0 2.0 0.00 0.00 0.00 62 1014.0
20260504045647 47 0.0 0.0 0.00 0.00 0.00 58 1013.8
20260504045156 47 0.0 0.0 0.00 0.00 0.00 58 1014.0
20260504044123 47 0.0 1.0 0.00 0.00 0.00 58 1013.9
20260504043109 48 212 1.0 1.0 0.00 0.00 0.00 57 1013.9
20260504042056 48 0.0 0.0 0.00 0.00 0.00 58 1013.7
20260504041041 48 210 0.0 1.0 0.00 0.00 0.00 58 1013.5
20260504040108 49 208 0.0 1.0 0.00 0.00 0.00 56 1013.6
20260504035014 48 211 0.0 2.0 0.00 0.00 0.00 57 1013.5
20260504034000 47 0.0 0.0 0.00 0.00 0.00 61 1013.4
20260504033005 48 0.0 0.0 0.00 0.00 0.00 60 1013.4
20260504031931 48 0.0 0.0 0.00 0.00 0.00 58 1013.5
20260504030918 48 0.0 0.0 0.00 0.00 0.00 57 1013.4
20260504025904 48 0.0 0.0 0.00 0.00 0.00 56 1013.3
20260504024851 50 207 1.0 1.0 0.00 0.00 0.00 54 1013.5
20260504023837 50 214 2.0 2.0 0.00 0.00 0.00 51 1013.5
20260504022843 50 207 1.0 2.0 0.00 0.00 0.00 52 1013.3
20260504021808 50 206 0.0 1.0 0.00 0.00 0.00 52 1013.4
20260504020835 51 208 0.0 1.0 0.00 0.00 0.00 50 1013.4
20260504015741 51 210 0.0 1.0 0.00 0.00 0.00 50 1013.2
20260504014727 52 213 0.0 1.0 0.00 0.00 0.00 47 1013.4
20260504013713 53 212 1.0 2.0 0.00 0.00 0.00 45 1012.9
20260504012700 53 204 0.0 1.0 0.00 0.00 0.00 45 1012.8
20260504011646 53 230 3.0 3.0 0.00 0.00 0.00 43 1012.7
20260504011200 54 205 1.0 2.0 0.00 0.00 0.00 44 1012.9
20260504010126 54 210 1.0 2.0 0.00 0.00 0.00 43 1012.7
20260504005112 55 229 2.0 3.0 0.00 0.00 0.00 42 1012.5
20260504004118 55 207 0.0 2.0 0.00 0.00 0.00 41 1012.4
20260504003043 56 215 1.0 2.0 0.00 0.00 0.00 40 1012.4
20260504002050 56 206 0.0 3.0 0.00 0.00 0.00 39 1012.3
20260504001017 57 245 4.0 6.0 0.00 0.00 0.00 38 1012.2
20260504000003 57 254 6.0 7.0 0.00 0.00 0.00 37 1011.9
20260503235010 58 215 1.0 7.0 0.00 0.00 0.00 36 1012.2
20260503233936 59 288 5.0 7.0 0.00 0.00 0.00 35 1011.9
20260503232922 59 247 6.0 10.0 0.00 0.00 0.00 35 1011.8
20260503231909 59 249 9.0 11.0 0.00 0.00 0.00 34 1011.7
20260503230915 59 244 5.0 11.0 0.00 0.00 0.00 34 1011.7
20260503225841 59 348 7.0 11.0 0.00 0.00 0.00 34 1011.6
20260503224828 59 227 8.0 16.0 0.00 0.00 0.00 33 1011.7
20260503223814 59 248 10.0 13.0 0.00 0.00 0.00 33 1011.6
20260503222821 59 242 9.0 14.0 0.00 0.00 0.00 33 1011.6
20260503221747 59 272 9.0 21.0 0.00 0.00 0.00 32 1011.8
20260503220733 60 278 6.0 16.0 0.00 0.00 0.00 32 1011.6
20260503215719 60 299 8.0 10.0 0.00 0.00 0.00 31 1011.5
20260503214726 59 246 3.0 6.0 0.00 0.00 0.00 32 1011.4
20260503213652 59 316 10.0 14.0 0.00 0.00 0.00 32 1011.5
20260503212638 59 352 8.0 15.0 0.00 0.00 0.00 32 1011.4
20260503211646 59 331 8.0 13.0 0.00 0.00 0.00 32 1011.6
20260503211118 59 201 7.0 18.0 0.00 0.00 0.00 33 1011.6
20260503210105 59 267 6.0 14.0 0.00 0.00 0.00 33 1011.6
20260503205051 59 241 10.0 14.0 0.00 0.00 0.00 32 1011.5
20260503204037 58 301 6.0 11.0 0.00 0.00 0.00 34 1011.6
20260503203024 58 293 11.0 15.0 0.00 0.00 0.00 33 1011.9
20260503202010 56 234 2.0 15.0 0.00 0.00 0.00 35 1011.8
20260503200956 57 291 10.0 16.0 0.00 0.00 0.00 34 1011.8
20260503200004 58 254 11.0 15.0 0.00 0.00 0.00 33 1011.9
20260503194929 56 267 8.0 14.0 0.00 0.00 0.00 34 1012.2
20260503193916 57 22 6.0 10.0 0.00 0.00 0.00 34 1012.1
20260503192903 57 261 11.0 21.0 0.00 0.00 0.00 34 1012.2
20260503191849 56 256 12.0 18.0 0.00 0.00 0.00 34 1012.3
20260503190835 56 254 10.0 18.0 0.00 0.00 0.00 34 1012.3
20260503185823 56 332 10.0 17.0 0.00 0.00 0.00 34 1012.7
20260503184808 56 306 9.0 15.0 0.00 0.00 0.00 34 1012.4
20260503183754 55 279 7.0 13.0 0.00 0.00 0.00 35 1012.6
20260503182740 57 351 10.0 11.0 0.00 0.00 0.00 35 1012.7
20260503181725 56 352 9.0 14.0 0.00 0.00 0.00 37 1012.7
20260503180711 54 310 8.0 14.0 0.00 0.00 0.00 36 1012.4
20260503175658 55 261 4.0 14.0 0.00 0.00 0.00 35 1012.4
20260503175228 53 295 9.0 14.0 0.00 0.00 0.00 35 1012.8
20260503174134 53 267 8.0 15.0 0.00 0.00 0.00 35 1012.9
20260503173120 53 31 8.0 19.0 0.00 0.00 0.00 36 1013.2
20260503172106 52 285 8.0 13.0 0.00 0.00 0.00 37 1013.0
20260503171052 52 53 8.0 15.0 0.00 0.00 0.00 38 1013.0
20260503150807 49 329 9.0 16.0 0.00 0.00 0.00 47 1013.6